• Join FlightAware (Why Join?)
  • Login
  • US Flag 
09:53PM EST


 

Airport Tracker/Info


-or-


 

Live Flight TrackerFlight Track Log ✈ N4508X ✈ 11-May-2013 ✈ KHPN - KBDR

Flight Track Log - Related Links

Times and Time Zones

All times are in EDT time to prevent confusion due to time zone crossing. See the N4508X flight status page for this flight to view local times or setup timezone preferences in your user account.

Time Position Orientation Groundspeed Altitude Reporting Facility
EDT Latitude Longitude Course Direction KTS MPH feet Rate Location/Type
10:02AM 41.0667 -73.7167 27° Northeast 94 108 1,700  Level New York TRACON
10:03AM 41.0667 -73.7500 270° West 67 77 2,400 780 Climbing New York TRACON
10:04AM 41.0667 -73.7667 270° West 55 63 3,200 660 Climbing New York TRACON
10:05AM 41.0667 -73.7833 270° West 98 113 3,900 600 Climbing New York TRACON
10:06AM 41.1000 -73.7667 21° North 127 146 4,500 480 Climbing New York TRACON
10:07AM 41.1333 -73.7500 21° North 133 153 4,900 180 Climbing New York TRACON
10:08AM 41.2287 -73.5920 27° Northeast  Level FlightAware Approximate
10:08AM 41.1667 -73.7167 37° Northeast 144 166 4,900  Level New York TRACON
10:09AM 41.2000 -73.6833 37° Northeast 144 166 5,000 60 Climbing New York TRACON
10:10AM 41.2167 -73.6500 56° Northeast 150 173 5,100  Climbing New York TRACON
10:11AM 41.2500 -73.6167 37° Northeast 153 176 5,000 -120 Descending New York TRACON
10:12AM 41.2833 -73.5667 48° Northeast 161 185 4,900  Descending New York TRACON
10:13AM 41.2833 -73.5167 90° East 135 155 5,000  Climbing New York TRACON
10:14AM 41.2667 -73.4667 114° Southeast 138 159 5,000 -300 Level New York TRACON
10:16AM 41.2511 -73.4199 114° Southeast  Level FlightAware Approximate
10:17AM 41.2667 -73.3333 143° Southeast 125 144 4,000  Level New York TRACON
10:18AM 41.2667 -73.2833 90° East 130 150 4,100 -300 Climbing New York TRACON
10:19AM 41.2667 -73.2333 90° East 145 167 3,400 -420 Descending New York TRACON
10:21AM 41.3000 -73.1333 66° East 132 152 3,000 -180 Descending New York TRACON
10:22AM 41.3000 -73.0833 90° East 139 160 3,000  Level New York TRACON
10:23AM 41.1904 -73.1571 143° Southeast  Level FlightAware Approximate
10:23AM 41.3000 -73.0333 90° East 122 140 3,100  Level New York TRACON
10:24AM 41.2833 -73.0000 124° Southeast 108 124 2,900 -300 Descending New York TRACON
10:25AM 41.2667 -73.0000 180° South 77 89 2,600 -480 Descending New York TRACON
10:26AM 41.2500 -73.0167 217° Southwest 90 104 2,100 -600 Descending New York TRACON